GW6918 Weather Reports


time (UTC)temp
C
wind
direction
speed
KPH
gust
KPH
rain 1hr
cm
rain 24hr
cm
rain mn
cm
humidity
%
barometer
mb
20260507223408 11 108 0.0 0.0 0.00 4.83 4.83 98 1009.2
20260507222905 11 141 0.0 0.0 0.00 4.83 4.83 98 1009.4
20260507222401 11 63 0.0 0.0 0.00 4.83 4.83 98 1009.2
20260507221858 11 263 3.2 3.2 0.00 4.83 4.83 99 1009.1
20260507221355 11 350 0.0 0.0 0.00 4.83 4.83 99 1009.0
20260507220851 11 114 0.0 0.0 0.00 4.83 4.83 99 1009.1
20260507220349 11 106 0.0 0.0 0.00 4.83 4.83 99 1009.1
20260507215845 11 303 1.6 1.6 0.00 4.83 4.83 99 1008.9
20260507215342 11 140 1.6 1.6 0.00 4.83 4.83 99 1009.1
20260507214839 11 96 1.6 1.6 0.00 4.83 4.83 99 1009.0
20260507214337 11 340 0.0 1.6 0.00 4.83 4.83 98 1009.1
20260507213837 11 312 4.8 6.4 0.00 4.83 4.83 97 1009.1
20260507213335 11 116 3.2 3.2 0.00 4.83 4.83 98 1008.9
20260507212831 11 76 0.0 0.0 0.00 4.83 4.83 99 1008.7
20260507212327 11 110 0.0 1.6 0.00 4.83 4.83 99 1008.6
20260507211824 11 61 1.6 1.6 0.00 4.83 4.83 99 1008.9
20260507211321 11 36 1.6 3.2 0.00 4.83 4.83 99 1009.1
20260507210818 11 19 1.6 3.2 0.00 4.83 4.83 99 1009.1
20260507210315 11 325 0.0 0.0 0.00 4.83 4.83 99 1009.1
20260507205811 11 21 0.0 1.6 0.00 4.83 4.83 99 1009.0
20260507205308 11 89 0.0 0.0 0.00 4.83 4.83 99 1008.8
20260507204804 11 88 3.2 3.2 0.00 4.83 4.83 99 1008.7
20260507204302 11 35 3.2 4.8 0.00 4.83 4.83 99 1008.6
20260507203759 11 27 0.0 1.6 0.00 4.83 4.83 99 1008.3
20260507203257 11 57 1.6 1.6 0.00 4.83 4.83 99 1008.5
20260507202753 11 64 3.2 4.8 0.00 4.83 4.83 99 1008.7
20260507202249 11 103 1.6 1.6 0.00 4.83 4.83 99 1008.4
20260507201744 11 78 0.0 0.0 0.00 4.83 4.83 99 1008.5
20260507201241 11 75 0.0 0.0 0.00 4.83 4.83 99 1008.3
20260507200737 11 75 0.0 1.6 0.00 4.83 4.83 99 1008.5
20260507200233 11 97 4.8 6.4 0.00 4.83 4.83 99 1008.1
20260507195730 11 289 1.6 1.6 0.00 4.83 4.83 99 1008.1
20260507195227 11 82 1.6 1.6 0.00 4.83 4.83 99 1008.2
20260507194724 11 154 1.6 1.6 0.00 4.83 4.83 99 1008.5
20260507194220 11 90 1.6 1.6 0.00 4.83 4.83 99 1008.1
20260507193717 11 78 1.6 1.6 0.00 4.83 4.83 99 1008.1
20260507193214 11 69 0.0 0.0 0.00 4.83 4.83 99 1008.3
20260507192710 11 77 0.0 1.6 0.00 4.83 4.83 99 1008.4
20260507192207 11 98 3.2 4.8 0.00 4.83 4.83 99 1008.3
20260507191702 11 62 0.0 0.0 0.00 4.83 4.83 99 1008.6
20260507191200 11 79 1.6 1.6 0.00 4.83 4.83 99 1008.6
20260507190657 11 46 1.6 3.2 0.00 4.83 4.83 99 1009.0
20260507190155 11 119 0.0 1.6 0.00 4.83 4.83 99 1008.9
20260507185654 11 175 0.0 0.0 0.00 4.83 4.83 99 1009.2
20260507185150 11 97 0.0 1.6 0.00 4.83 4.83 99 1008.9
20260507184648 11 87 0.0 0.0 0.00 4.83 4.83 99 1009.3
20260507184146 11 142 0.0 0.0 0.00 4.83 4.83 99 1009.5
20260507183642 12 149 0.0 0.0 0.00 4.83 4.83 99 1009.5
20260507183139 12 158 0.0 1.6 0.00 4.83 4.83 99 1009.1
20260507182635 12 117 3.2 3.2 0.13 4.83 4.83 99 1008.9
20260507182131 12 35 0.0 1.6 0.13 4.83 4.83 99 1008.8
20260507181628 12 91 0.0 1.6 0.00 4.80 4.80 99 1008.4
20260507181124 11 72 1.6 1.6 0.00 4.80 4.80 99 1008.9
20260507180620 11 153 1.6 1.6 0.18 4.80 4.80 99 1008.8
20260507180118 11 115 1.6 1.6 0.30 4.80 4.80 99 1009.2
20260507175614 11 104 0.0 0.0 0.13 4.78 4.78 99 1009.7
20260507175111 11 79 1.6 1.6 0.18 4.75 4.75 99 1010.2
20260507174608 11 56 1.6 3.2 0.30 4.75 4.75 99 1010.3
20260507174106 11 148 3.2 3.2 0.13 4.72 4.72 99 1009.8
20260507173603 11 89 1.6 1.6 0.18 4.70 4.70 99 1010.0
20260507173100 11 108 0.0 0.0 0.18 4.70 4.70 99 1010.0
20260507172556 11 83 0.0 0.0 0.18 4.67 4.67 99 1010.4
20260507172053 11 78 0.0 0.0 0.30 4.67 4.67 99 1010.8
20260507171548 11 56 0.0 0.0 0.43 4.65 4.65 99 1010.9
20260507171046 11 59 0.0 0.0 0.48 4.62 4.62 99 1010.4
20260507170542 11 96 0.0 0.0 0.30 4.57 4.57 99 1010.6
20260507170039 11 10 1.6 3.2 0.48 4.57 4.57 99 1010.4
20260507165535 11 129 0.0 0.0 0.48 4.52 4.52 99 1010.6
20260507165032 11 87 0.0 0.0 0.43 4.50 4.50 99 1010.8
20260507164528 11 88 1.6 1.6 0.43 4.45 4.45 99 1010.5
20260507164025 11 143 0.0 0.0 1.27 4.42 4.42 99 1010.4
20260507163522 11 59 3.2 3.2 1.37 4.37 4.37 99 1010.2
20260507163020 11 54 6.4 9.7 1.27 4.24 4.24 99 1010.6
20260507162515 11 100 1.6 3.2 1.37 4.14 4.14 99 1010.1
20260507162012 11 91 6.4 11.3 0.89 4.01 4.01 99 1010.3
20260507161508 11 82 1.6 1.6 0.48 3.91 3.91 99 1010.2
20260507161005 11 68 1.6 1.6 0.30 3.86 3.86 99 1010.7
20260507160501 11 258 0.0 1.6 0.30 3.84 3.84 99 1010.8
20260507155956 11 69 1.6 3.2 0.30 3.81 3.81 99 1010.6
20260507155453 11 89 1.6 1.6 0.48 3.78 3.78 99 1010.5
20260507154950 11 216 1.6 3.2 0.66 3.76 3.76 99 1010.5
20260507154447 11 78 1.6 3.2 0.43 3.71 3.71 99 1010.5
20260507153944 11 284 6.4 9.7 0.61 3.66 3.66 99 1010.7
20260507153441 12 46 1.6 3.2 0.61 3.63 3.63 99 1010.4
20260507152937 12 171 1.6 3.2 0.13 3.56 3.56 99 1010.5
20260507152433 12 85 0.0 0.0 0.18 3.53 3.53 99 1010.4
20260507151929 12 61 3.2 4.8 0.61 3.53 3.53 99 1010.3
20260507151426 12 97 1.6 1.6 0.79 3.51 3.51 99 1010.4
20260507150923 12 203 1.6 1.6 0.66 3.43 3.43 99 1010.7
20260507150420 12 181 3.2 3.2 0.61 3.38 3.38 99 1010.3
20260507145916 12 108 0.0 0.0 0.71 3.33 3.33 99 1010.4
20260507145412 12 65 1.6 3.2 0.61 3.28 3.28 99 1010.3
20260507144909 13 70 3.2 3.2 0.79 3.20 3.20 99 1010.0
20260507144406 13 111 1.6 3.2 0.79 3.17 3.17 99 1010.0
20260507143903 13 45 1.6 3.2 0.30 3.07 3.07 99 1009.9
20260507143400 13 79 1.6 3.2 0.30 3.05 3.05 99 1010.1
20260507142856 13 359 3.2 4.8 0.30 3.02 3.02 99 1010.1
20260507142352 13 116 1.6 1.6 0.13 3.00 3.00 99 1010.0
20260507141849 14 210 1.6 3.2 0.18 2.97 2.97 99 1009.9
20260507141346 14 95 0.0 0.0 0.30 2.97 2.97 99 1009.9
20260507140843 14 120 1.6 3.2 0.30 2.95 2.95 99 1010.0
20260507140339 15 85 1.6 1.6 0.30 2.92 2.92 99 1009.9
20260507135837 15 82 1.6 1.6 0.43 2.90 2.90 99 1009.9
20260507135334 15 103 0.0 1.6 0.66 2.87 2.87 99 1009.9
20260507134831 15 99 0.0 1.6 0.79 2.84 2.84 99 1009.6
20260507134327 15 53 1.6 1.6 0.89 2.79 2.79 99 1009.7
20260507133823 16 60 0.0 1.6 0.71 2.72 2.72 99 1009.8
20260507133319 16 337 0.0 0.0 0.61 2.64 2.64 99 1010.1
20260507132818 16 6 0.0 0.0 0.61 2.59 2.59 99 1009.8
20260507132314 16 301 0.0 0.0 1.07 2.54 2.54 99 1010.0
20260507131811 16 45 0.0 0.0 0.79 2.49 2.49 99 1010.0
20260507131308 16 311 0.0 1.6 0.30 2.39 2.39 99 1010.0
20260507130804 16 339 1.6 1.6 0.30 2.36 2.36 99 1010.0
20260507130302 16 39 0.0 1.6 0.61 2.34 2.34 99 1009.8
20260507125801 16 86 1.6 3.2 0.79 2.31 2.31 99 1009.9
20260507125258 17 302 1.6 3.2 0.61 2.26 2.26 99 1010.1
20260507124755 17 353 4.8 6.4 0.30 2.18 2.18 99 1009.6
20260507124251 18 14 1.6 3.2 0.66 2.16 2.16 99 1010.0
20260507123750 18 346 1.6 3.2 1.37 2.13 2.13 99 1009.6
20260507123247 18 350 0.0 0.0 2.39 2.06 2.06 99 1009.9
20260507122742 18 349 1.6 1.6 2.87 1.91 1.91 99 1010.0
20260507122238 18 194 0.0 0.0 3.25 1.65 1.65 99 1009.9
20260507121734 18 193 0.0 0.0 3.07 1.42 1.42 99 1009.9
20260507121230 18 197 0.0 0.0 1.85 1.09 1.09 99 1010.1
20260507120726 18 197 0.0 0.0 1.37 0.91 0.91 99 1009.8
20260507120224 18 197 0.0 0.0 1.02 0.79 0.79 99 1009.6
20260507115719 18 200 0.0 0.0 0.89 0.69 0.69 99 1009.8
20260507115215 18 200 0.0 0.0 0.66 0.61 0.61 99 1009.7
20260507114711 18 200 0.0 0.0 0.30 0.53 0.53 99 1009.7
20260507114209 18 200 0.0 0.0 0.13 0.51 0.51 99 1009.8
20260507113706 18 200 0.0 0.0 0.00 0.48 0.48 99 1009.8
20260507113203 18 200 0.0 0.0 0.00 0.48 0.48 99 1009.7
20260507112700 18 200 0.0 0.0 0.18 0.48 0.48 99 1009.9
20260507112157 18 200 0.0 0.0 0.18 0.48 0.48 99 1009.4
20260507111654 18 200 0.0 0.0 0.00 0.46 0.46 99 1009.6
20260507111151 18 200 0.0 0.0 0.00 0.46 0.46 99 1009.6
20260507110647 18 200 0.0 0.0 0.13 0.46 0.46 99 1009.7
20260507110144 18 200 0.0 0.0 0.13 0.46 0.46 99 1009.6
20260507105641 18 200 0.0 0.0 0.00 0.43 0.43 99 1009.4
20260507105137 18 200 0.0 0.0 0.18 0.43 0.43 99 1009.4
20260507104634 18 200 0.0 0.0 0.30 0.43 0.43 99 1009.5
20260507104131 18 200 0.0 0.0 0.30 0.41 0.41 99 1009.3
20260507103627 18 200 0.0 0.0 0.30 0.38 0.38 99 1009.2
20260507103124 18 200 0.0 0.0 0.13 0.36 0.36 99 1009.3
20260507102620 18 200 0.0 0.0 0.30 0.33 0.33 99 1009.1
20260507102116 18 200 1.6 1.6 0.48 0.33 0.33 99 1009.1
20260507101612 18 200 3.2 3.2 0.66 0.28 0.28 99 1009.1
20260507101108 18 200 3.2 3.2 0.61 0.25 0.25 99 1009.1
20260507100606 18 201 3.2 3.2 0.30 0.20 0.20 99 1008.8
20260507100104 18 201 0.0 0.0 0.18 0.15 0.15 99 1009.2
20260507095601 19 201 0.0 0.0 0.18 0.15 0.15 99 1009.0
20260507095058 19 201 0.0 0.0 0.30 0.13 0.13 99 1009.0
20260507094554 20 201 0.0 0.0 0.71 0.13 0.13 98 1008.9
20260507094051 20 201 0.0 0.0 0.61 0.10 0.10 96 1009.0
20260507093549 20 201 3.2 3.2 0.00 0.00 0.00 94 1009.1
20260507093047 20 201 1.6 1.6 0.00 0.00 0.00 94 1008.9
20260507092543 20 201 1.6 1.6 0.00 0.00 0.00 93 1008.8
20260507092040 20 201 1.6 1.6 0.00 0.00 0.00 93 1009.0
20260507091537 20 201 1.6 1.6 0.00 0.00 0.00 93 1008.8
20260507091033 20 201 1.6 1.6 0.00 0.00 0.00 93 1008.7
20260507090529 20 201 1.6 1.6 0.00 0.00 0.00 93 1009.0
20260507090026 20 201 1.6 1.6 0.00 0.00 0.00 92 1009.0
20260507085523 20 201 3.2 3.2 0.00 0.00 0.00 92 1008.8
20260507085020 20 200 3.2 3.2 0.00 0.00 0.00 92 1009.3
20260507084516 20 199 3.2 3.2 0.00 0.00 0.00 92 1009.3
20260507084013 20 199 3.2 3.2 0.00 0.00 0.00 92 1009.2
20260507083509 20 197 1.6 1.6 0.00 0.00 0.00 91 1009.2
20260507083007 20 197 1.6 1.6 0.00 0.00 0.00 91 1009.4
20260507082503 20 197 1.6 1.6 0.00 0.00 0.00 90 1009.3
20260507081959 20 197 1.6 1.6 0.00 0.00 0.00 90 1009.6
20260507081455 20 196 1.6 1.6 0.00 0.00 0.00 91 1009.5
20260507080952 20 196 3.2 3.2 0.00 0.00 0.00 91 1009.7
20260507080448 20 196 3.2 3.2 0.00 0.00 0.00 90 1009.6
20260507075943 20 196 3.2 3.2 0.00 0.00 0.00 89 1009.6
20260507075440 20 191 3.2 3.2 0.00 0.00 0.00 90 1009.6
20260507074937 20 190 3.2 3.2 0.00 0.00 0.00 90 1009.8
20260507074433 20 188 3.2 1.6 0.00 0.00 0.00 90 1009.8
20260507073932 20 183 3.2 3.2 0.00 0.00 0.00 90 1009.8
20260507073428 20 181 3.2 3.2 0.00 0.00 0.00 89 1009.9
20260507072925 20 181 1.6 1.6 0.00 0.00 0.00 90 1010.0
20260507072422 20 180 3.2 3.2 0.00 0.00 0.00 89 1010.1
20260507071920 20 179 3.2 3.2 0.00 0.00 0.00 89 1010.0
20260507071416 20 178 1.6 1.6 0.00 0.00 0.00 89 1009.7
20260507070913 20 178 1.6 1.6 0.00 0.00 0.00 89 1009.6
20260507070410 20 177 1.6 1.6 0.00 0.00 0.00 89 1009.8
20260507065907 20 177 3.2 3.2 0.00 0.00 0.00 89 1009.4
20260507065404 20 176 0.0 0.0 0.00 0.00 0.00 90 1009.5
20260507064900 20 176 1.6 1.6 0.00 0.00 0.00 91 1009.2
20260507064359 20 179 3.2 3.2 0.00 0.00 0.00 90 1009.0
20260507063856 20 168 4.8 4.8 0.00 0.00 0.00 88 1008.6
20260507063353 21 170 4.8 3.2 0.00 0.00 0.00 87 1009.2
20260507062850 21 206 3.2 3.2 0.00 0.00 0.00 86 1009.8
20260507062347 21 206 3.2 3.2 0.00 0.00 0.00 85 1010.3
20260507061845 21 206 1.6 1.6 0.00 0.00 0.00 85 1010.6
20260507061342 21 206 1.6 1.6 0.00 0.00 0.00 85 1010.8
20260507060841 21 206 1.6 1.6 0.00 0.00 0.00 85 1010.5
20260507060337 21 206 1.6 1.6 0.00 0.00 0.00 85 1010.5
20260507055834 21 206 1.6 1.6 0.00 0.00 0.00 83 1010.4
20260507055329 21 206 3.2 3.2 0.00 0.00 0.00 82 1010.5
20260507054826 21 206 3.2 3.2 0.00 0.00 0.00 82 1010.6
20260507054322 21 206 3.2 3.2 0.00 0.00 0.00 80 1010.5
20260507053820 21 206 3.2 3.2 0.00 0.00 0.00 80 1010.5
20260507053317 21 213 4.8 3.2 0.00 0.00 0.00 79 1010.5
20260507052816 21 208 3.2 4.8 0.00 0.00 0.00 79 1010.7
20260507052312 21 196 3.2 3.2 0.00 0.00 0.00 80 1010.5
20260507051810 21 205 3.2 3.2 0.00 0.00 0.00 79 1010.7
20260507051307 21 210 3.2 4.8 0.00 0.00 0.00 79 1010.6
20260507050804 21 202 3.2 3.2 0.00 0.00 0.00 80 1010.5
20260507050300 21 201 3.2 3.2 0.00 0.00 0.00 80 1010.4
20260507045757 21 199 4.8 4.8 0.00 0.00 0.00 81 1010.4
20260507045253 21 201 3.2 3.2 0.00 0.00 0.00 80 1010.4
20260507044751 21 199 3.2 3.2 0.00 0.00 0.00 80 1010.5
20260507044247 21 197 6.4 4.8 0.00 0.00 0.00 81 1010.6
20260507043743 21 192 3.2 4.8 0.00 0.00 0.00 81 1010.6
20260507043240 21 195 4.8 4.8 0.00 0.00 0.00 80 1010.5
20260507042736 21 190 4.8 4.8 0.00 0.00 0.00 81 1010.8
20260507042232 21 208 6.4 6.4 0.00 0.00 0.00 82 1010.7
20260507041730 21 198 6.4 4.8 0.00 0.00 0.00 81 1010.8
20260507041226 21 208 6.4 6.4 0.00 0.00 0.00 80 1010.5
20260507040723 21 194 6.4 9.7 0.00 0.00 0.00 80 1010.4
20260507040219 21 200 6.4 4.8 0.00 0.00 0.00 79 1010.4
20260507035715 21 199 6.4 4.8 0.00 0.00 0.00 80 1010.5
20260507035211 21 197 6.4 6.4 0.00 0.00 0.00 80 1010.5
20260507034708 21 191 6.4 4.8 0.00 0.00 0.00 80 1010.5
20260507034206 21 200 6.4 6.4 0.00 0.00 0.00 79 1010.2
20260507033704 21 183 6.4 6.4 0.00 0.00 0.00 79 1010.5
20260507033201 21 190 6.4 6.4 0.00 0.00 0.00 79 1010.5
20260507032658 21 177 6.4 6.4 0.00 0.00 0.00 79 1010.7
20260507032153 21 192 4.8 4.8 0.00 0.00 0.00 81 1010.7
20260507031651 21 193 6.4 4.8 0.00 0.00 0.00 80 1010.6
20260507031147 21 195 6.4 4.8 0.00 0.00 0.00 81 1010.5
20260507030644 21 195 6.4 6.4 0.00 0.00 0.00 80 1010.5
20260507030142 21 193 6.4 4.8 0.00 0.00 0.00 80 1010.6
20260507025639 21 194 4.8 4.8 0.00 0.00 0.00 80 1010.7
20260507025136 21 193 4.8 3.2 0.00 0.00 0.00 81 1010.6
20260507024634 21 190 4.8 4.8 0.00 0.00 0.00 81 1010.8
20260507024131 21 190 3.2 3.2 0.00 0.00 0.00 80 1010.7
20260507023626 22 169 4.8 4.8 0.00 0.00 0.00 80 1010.7
20260507023124 22 183 4.8 4.8 0.00 0.00 0.00 79 1010.9
20260507022621 22 196 4.8 4.8 0.00 0.00 0.00 79 1010.8
20260507022116 22 188 4.8 4.8 0.00 0.00 0.00 80 1011.1
20260507021612 22 191 4.8 4.8 0.00 0.00 0.00 78 1010.7
20260507021108 22 201 4.8 4.8 0.00 0.00 0.00 77 1010.8
20260507020607 22 201 3.2 3.2 0.00 0.00 0.00 75 1010.9
20260507015601 23 201 1.6 1.6 0.00 0.00 0.00 73 1011.0
20260507015058 23 201 1.6 3.2 0.00 0.00 0.00 74 1010.9
20260507014555 23 201 3.2 3.2 0.00 0.00 0.00 75 1010.9
20260507014050 23 201 3.2 1.6 0.00 0.00 0.00 75 1010.8
20260507013547 23 200 1.6 1.6 0.00 0.00 0.00 77 1010.8
20260507013044 23 201 3.2 3.2 0.00 0.00 0.00 77 1010.8
20260507012542 23 200 1.6 1.6 0.00 0.00 0.00 77 1010.8
20260507012038 23 201 3.2 3.2 0.00 0.00 0.00 77 1011.0
20260507011536 23 192 6.4 4.8 0.00 0.00 0.00 78 1010.8
20260507011031 23 200 4.8 4.8 0.00 0.00 0.00 79 1010.9
20260507010526 23 203 4.8 4.8 0.00 0.00 0.00 77 1011.0
20260507010023 23 209 4.8 4.8 0.00 0.00 0.00 78 1011.0
20260507005520 23 195 4.8 6.4 0.00 0.00 0.00 78 1011.0
20260507005017 23 201 6.4 6.4 0.00 0.00 0.00 79 1011.0
20260507004514 23 203 8.0 9.7 0.00 0.00 0.00 79 1010.7
20260507004011 23 202 9.7 9.7 0.00 0.00 0.00 79 1010.7
20260507003506 23 197 6.4 6.4 0.00 0.00 0.00 80 1010.8
20260507003001 23 196 6.4 6.4 0.00 0.00 0.00 80 1010.6
20260507002458 23 204 8.0 9.7 0.00 0.00 0.00 79 1010.6
20260507001955 23 204 8.0 9.7 0.00 0.00 0.00 80 1010.4
20260507001451 23 210 9.7 9.7 0.00 0.00 0.00 80 1010.3
20260507000949 23 165 6.4 6.4 0.00 0.00 0.00 80 1010.2
20260507000444 23 196 8.0 9.7 0.00 0.00 0.00 80 1010.2
20260506235940 23 189 6.4 6.4 0.00 0.00 0.00 80 1010.4
20260506235438 23 183 6.4 6.4 0.00 0.00 0.00 82 1010.3
20260506234933 23 186 6.4 6.4 0.00 0.00 0.00 81 1010.2
20260506234431 23 179 6.4 4.8 0.00 0.00 0.00 80 1010.3
20260506233929 23 188 6.4 6.4 0.00 0.00 0.00 80 1009.9
20260506233425 23 183 6.4 6.4 0.00 0.00 0.00 79 1010.0
20260506232921 23 204 6.4 6.4 0.00 0.00 0.00 80 1010.0
20260506232418 23 198 8.0 6.4 0.00 0.00 0.00 79 1009.9
20260506231914 24 201 6.4 6.4 0.00 0.00 0.00 78 1010.2
20260506231411 24 182 6.4 6.4 0.00 0.00 0.00 77 1010.0
20260506230909 23 198 8.0 9.7 0.00 0.00 0.00 79 1010.0
20260506230405 23 219 6.4 6.4 0.00 0.00 0.00 78 1009.9
20260506225901 24 189 6.4 6.4 0.00 0.00 0.00 77 1009.8
20260506225359 24 195 6.4 6.4 0.00 0.00 0.00 77 1009.6
20260506224855 24 165 6.4 6.4 0.00 0.00 0.00 76 1009.8
20260506224353 24 182 6.4 4.8 0.00 0.00 0.00 76 1009.9
20260506223849 24 192 6.4 6.4 0.00 0.00 0.00 76 1009.7